Regional Weather Roundup
Issued by NWS

Home | Current Version | Previous Version | Graphics & Text | Print | Product List | Glossary On
Versions: 1 2 3 4 5 6 7 8 9 10 11 12 13 14 15 16 17 18 19 20 21 22 23 24 25 26 27 28 29 30 31 32 33 34 35 36 37 38 39 40 41 42 43 44 45 46 47 48 49 50
000
ASUS43 KMPX 280210
RWRMN
WEATHER ROUNDUP FOR MINNESOTA
NATIONAL WEATHER SERVICE TWIN CITIES/CHANHASSEN MN
900 PM CDT WED JUL 27 2016


NOTE: "FAIR" INDICATES FEW OR NO CLOUDS BELOW 12,000 FEET WITH NO
SIGNIFICANT WEATHER AND/OR OBSTRUCTIONS TO VISIBILITY. N/A MEANS
CURRENT SKY AND/OR WEATHER CONDITIONS ARE NOT AVAILABLE.

MNZ060>063-068>070-280300-
   Twin Cities Metro

CITY           SKY/WX    TMP DP  RH WIND       PRES   REMARKS
TWIN CITIES    CLOUDY    71  64  78 N12       29.95R
ST PAUL        CLOUDY    70  65  84 N8        29.95R
CRYSTAL        CLOUDY    69  63  81 N10       29.94S
BLAINE         CLOUDY    70  68  94 N8        29.95
LAKEVILLE      MOCLDY    70  64  83 N8        29.95R
EDEN PRAIRIE   PTCLDY    71  64  78 N9        29.94R
LAKEVILLE      MOCLDY    70  64  83 N8        29.95R
SOUTH ST PAUL  MOCLDY    70  65  84 N5        29.95R
LAKE ELMO      CLOUDY    68  66  94 N7        29.96R
$$
MNZ001>005-007-008-013>017-022>024-027-028-280300-
   Northwest Minnesota

CITY           SKY/WX    TMP DP  RH WIND       PRES   REMARKS
HALLOCK        CLOUDY    68  61  77 N9        30.08R
ROSEAU         CLEAR     66  61  82 CALM      30.07R
WARROAD        CLEAR     70  61  73 NE10G17   30.07S
THIEF RVR FALL CLOUDY    71  61  70 N8        30.05R
CROOKSTON      CLOUDY    70  61  73 N13       30.05R
FOSSTON        CLOUDY    66  61  82 CALM      30.05R
DETROIT LAKES  PTCLDY    70  61  73 E3        30.05R
MOORHEAD       CLOUDY    70  61  73 N12       30.03S
PARK RAPIDS    CLOUDY    70  62  76 NE3       30.03R
MAHNOMEN       CLOUDY    68  63  84 NE5       30.04R
$$
MNZ006-009>011-018-025>026-280300-
   North Central Minnesota

CITY           SKY/WX    TMP DP  RH WIND       PRES   REMARKS
BAUDETTE       CLEAR     68  56  65 N8        30.06R
FLAG ISLAND    CLEAR     68  55  64 NE15      30.07S
INTL FALLS     CLEAR     68  54  60 N7        30.04S
WASKISH        PTCLDY    70  59  68 NE5       30.04R
BIG FORK       PTCLDY    64  61  88 CALM      30.04R
LONGVILLE      CLEAR     64  63  94 CALM      30.03R
GRAND RAPIDS   CLEAR     64  62  93 CALM      30.05R
CRANE LAKE     CLEAR     66  55  68 NE2       30.05S
ORR            PTCLDY    63  57  82 CALM      30.02R
COOK           CLEAR     64  57  77 CALM      30.04R
WALKER         FAIR      67  60  79 NE3       30.03R
$$
MNZ012-019>021-037-280300-
   Northeast Minnesota

CITY           SKY/WX    TMP DP  RH WIND       PRES   REMARKS
DULUTH         CLEAR     61  58  90 SE5       30.03S
ELY            CLEAR     64  61  88 CALM      30.03F
HIBBING        CLOUDY    64  63  96 CALM      30.03R
EVELETH        PTCLDY    65  62  89 CALM      30.04R
DULUTH HARBOR  CLOUDY    64  61  88 NE14      30.03R
TWO HARBORS    CLEAR     64  59  82 CALM      30.02R
SILVER BAY     CLOUDY    63  57  82 CALM      30.02S
GRAND MARAIS     N/A     63  57  81 CALM      30.03R
$$
MNZ029>031-032-039>041-046>048-054>057-064-280300-
   West Central Minnesota

CITY           SKY/WX    TMP DP  RH WIND       PRES   REMARKS
FERGUS FALLS   CLEAR     66  59  77 NW6       30.04R
WHEATON        CLEAR     70  63  78 NW7       30.05R
MORRIS         CLEAR     70  61  73 NW8       30.01S
ALEXANDRIA     CLOUDY    73  62  68 NW6       30.02R
ELBOW LAKE     FAIR      68  60  76 W8        30.03R
WADENA         CLOUDY    68  63  83 NE3       30.03R
GLENWOOD       MOCLDY    70  64  83 CALM      30.02R
APPLETON       CLEAR     70  61  73 NW7       30.00S
BENSON         PTCLDY    72  57  60 N7        30.00S
ORTONVILLE     CLEAR     72  61  68 N7        30.03R
MADISON        CLEAR     72  57  60 N8        30.01S
WILLMAR        FAIR      72  66  83 N5        30.01R
$$
MNZ033>034-036-042>043-049>051-058-059-280300-
   Central Minnesota

CITY           SKY/WX    TMP DP  RH WIND       PRES   REMARKS
ST CLOUD       PTCLDY    68  64  87 CALM      30.00R
SAUK CENTRE    FAIR      69  65  86 NE7       30.01R
PAYNESVILLE    PTCLDY    69  63  82 NE6       30.00S
AITKIN         CLEAR     64  57  77 CALM      30.01S
PINE RIVER     MOCLDY    66  63  88 CALM      30.06R
BRAINERD       PTCLDY    65  62  90 NE5       30.02R
STAPLES        MOCLDY    66  61  82 CALM      30.03R
LONG PRAIRIE   CLOUDY    68  63  83 N5        30.02S
LITTLE FALLS   CLOUDY    68  61  77 CALM      30.01S
LITCHFIELD     CLEAR     72  66  83 N6        30.00R
BUFFALO        CLOUDY    69  63  81 N5        29.99R
MAPLE LAKE     CLOUDY    69  65  87 N6        30.00R
HUTCHINSON     CLOUDY    72  66  81 N3        30.00R
$$
MNZ037-044-045-052-053-280300-
   East Central Minnesota

CITY           SKY/WX    TMP DP  RH WIND       PRES   REMARKS
PRINCETON      CLOUDY    66  63  88 NE10      29.98S
MORA           CLOUDY    59  55  88 NE5       30.02S
CAMBRIDGE      CLOUDY    66  61  82 N5        29.96S
RUSH CITY      RAIN      64  63  94 NE8       29.99R
MOOSE LAKE     CLOUDY    61  55  82 NE3       30.00S
HINCKLEY       CLOUDY    63  63 100 N6        30.00S
CLOQUET        CLEAR     61  57  88 CALM      30.03R
MCGREGOR       CLEAR     63  61  94 CALM      30.03R
$$
MNZ071>073-080-081-089-090-097-098-280300-
   Southwest Minnesota

CITY           SKY/WX    TMP DP  RH WIND       PRES   REMARKS
MONTEVIDEO     CLEAR     72  63  73 N9        30.01S
GRANITE FALLS  CLEAR     73  64  72 N7        30.01S
CANBY          CLEAR     72  60  64 NW5       30.03R
MARSHALL       CLEAR     71  66  84 N5        30.01R
REDWOOD FALLS  CLEAR     73  65  75 NE5       29.97S
OLIVIA         CLEAR     72  64  78 N5        29.98F
PIPESTONE      CLEAR     73  63  68 N5        30.03R
WINDOM         CLEAR     70  64  83 N8        29.99S
WORTHINGTON    CLEAR     72  65  78 N8        30.02R
JACKSON        CLEAR     72  63  73 N3        30.00R
TRACY          CLEAR     72  64  77 N5        30.01R
SLAYTON        CLEAR     70  63  79 N6        30.03R
$$
MNZ065>067-074>077-082>085-091>093-280300-
   South Central Minnesota

CITY           SKY/WX    TMP DP  RH WIND       PRES   REMARKS
MANKATO        CLEAR     72  63  73 NW7       29.96S
NEW ULM        CLEAR     72  66  83 N3        29.97S
ST JAMES       CLEAR     66  61  82 N3        29.98S
FAIRMONT       MOCLDY    72  64  78 N8        29.96S
GLENCOE        PTCLDY    72  68  87 N7        29.97R
FARIBAULT      CLEAR     70  68  94 NW3       29.95R
OWATONNA       CLEAR     70  66  88 NW7       29.94R
WASECA         CLEAR     68  64  88 NW5       29.96R
ALBERT LEA     CLEAR     70  68  94 W3        29.94S
$$
MNZ078>079-086>088-094>096-280300-
   Southeast Minnesota

CITY           SKY/WX    TMP DP  RH WIND       PRES   REMARKS
ROCHESTER      MOCLDY    70  68  93 SW3       29.94R
RED WING       CLOUDY    72  70  94 N3        29.92R
STANTON        CLEAR     70  66  88 N3        29.93R
DODGE CENTER   CLEAR     66  64  94 W6        29.94R
WINONA         CLOUDY    73  68  83 CALM      29.92R
AUSTIN         CLOUDY    72  66  83 W5        29.94R
PRESTON        CLOUDY    73  67  82 SW5       29.94R
$$
ABBREVIATIONS USED IN REMARKS
   TC - TEMPERATURES IN CELSIUS
  WCI - WIND CHILL INDEX
   HX - HEAT INDEX
  VSB - VISIBILITY
$$




USA.gov is the U.S. government's official web portal to all federal, state and local government web resources and services.